User: anonymous   Login
Location: Owatonna
(44.0840°N, 93.2260°W)
Time: 02:20:10
(UTC-05:00)
Language:

Cosmos 1500 Rocket - Orbit

View from above orbital plane
View from above orbital plane
View from above satellite
View from above satellite

Ground track
Ground track

The orbit data is extracted from the following two-line orbital elements,

1 14373U 83099B   17233.91610685 +.00000079 +00000-0 +65782-5 0  9998
2 14373 082.5423 183.1238 0020619 014.2993 042.2692 14.83686152809529
Epoch (UTC): 21 August 2017 21:59:11
Eccentricity: 0.0020619
inclination: 82.5423°
perigee height: 603 km
apogee height: 632 km
right ascension of ascending node: 183.1238°
argument of perigee: 14.2993°
revolutions per day: 14.83686152
mean anomaly at epoch: 42.2692°
orbit number at epoch: 80952

The dashed part of the orbit path shows where the satellite is in the earth's shadow,  

DLR